International Skating Union - Official Site

Essent ISU World Cup Berlin
November 7-9, 2008

Draw | Lap Times | Index | World Cup

Referee: Tore B.  RAMTON  (NOR)
Starter: Hartmut  WEIRAUCH  (GER)
StartTime: EndTime: Air Temp: Ice Temp: Humidity:
17:41 19:40 12.9 ℃ -5.4 ℃ 38%

Result 5000m Men Division A
Rankings as of Mar 4 2009 11:59PM
Rank: No.: Name: Nation: Time: Behind: Points:
1 92 Sven  KRAMER NED NED 6:15.74200m - 18.03 - (18.0)
600m - 46.75 - (28.7)
1000m - 1:15.85 - (29.0)
1400m - 1:45.40 - (29.5)
1800m - 2:14.75 - (29.3)
2200m - 2:44.42 - (29.6)
2600m - 3:14.13 - (29.7)
3000m - 3:43.97 - (29.8)
3400m - 4:13.96 - (29.9)
3800m - 4:44.11 - (30.1)
4200m - 5:14.08 - (29.9)
4600m - 5:44.62 - (30.5)
5000m - 6:15.74 - (31.1)
100
2 104 Håvard  BØKKO NOR NOR 6:20.03200m - 18.22 - (18.2)
600m - 47.20 - (28.9)
1000m - 1:16.89 - (29.6)
1400m - 1:46.64 - (29.7)
1800m - 2:16.72 - (30.0)
2200m - 2:46.79 - (30.0)
2600m - 3:16.89 - (30.1)
3000m - 3:47.01 - (30.1)
3400m - 4:17.31 - (30.3)
3800m - 4:47.83 - (30.5)
4200m - 5:18.52 - (30.6)
4600m - 5:49.21 - (30.6)
5000m - 6:20.03 - (30.8)
4.29 80
3 93 Carl  VERHEIJEN NED NED 6:20.87200m - 19.43 - (19.4)
600m - 48.56 - (29.1)
1000m - 1:18.12 - (29.5)
1400m - 1:47.74 - (29.6)
1800m - 2:17.75 - (30.0)
2200m - 2:48.05 - (30.3)
2600m - 3:18.32 - (30.2)
3000m - 3:48.56 - (30.2)
3400m - 4:18.74 - (30.1)
3800m - 4:48.87 - (30.1)
4200m - 5:19.29 - (30.4)
4600m - 5:49.85 - (30.5)
5000m - 6:20.87 - (31.0)
5.13 70
4 95 Bob  de JONG NED NED 6:23.66200m - 19.43 - (19.4)
600m - 49.90 - (30.4)
1000m - 1:20.76 - (30.8)
1400m - 1:51.44 - (30.6)
1800m - 2:21.94 - (30.5)
2200m - 2:52.51 - (30.5)
2600m - 3:22.76 - (30.2)
3000m - 3:53.20 - (30.4)
3400m - 4:23.50 - (30.3)
3800m - 4:53.72 - (30.2)
4200m - 5:23.84 - (30.1)
4600m - 5:53.77 - (29.9)
5000m - 6:23.66 - (29.8)
7.92 60
5 60 Enrico  FABRIS ITA ITA 6:24.44200m - 18.74 - (18.7)
600m - 48.42 - (29.6)
1000m - 1:18.90 - (30.4)
1400m - 1:49.27 - (30.3)
1800m - 2:19.80 - (30.5)
2200m - 2:50.55 - (30.7)
2600m - 3:21.23 - (30.6)
3000m - 3:52.01 - (30.7)
3400m - 4:22.62 - (30.6)
3800m - 4:52.97 - (30.3)
4200m - 5:23.39 - (30.4)
4600m - 5:53.94 - (30.5)
5000m - 6:24.44 - (30.5)
8.70 50
6 141 Chad  HEDRICK USA USA 6:25.77200m - 18.66 - (18.6)
600m - 46.92 - (28.2)
1000m - 1:16.21 - (29.2)
1400m - 1:46.17 - (29.9)
1800m - 2:16.42 - (30.2)
2200m - 2:46.87 - (30.4)
2600m - 3:17.50 - (30.6)
3000m - 3:48.27 - (30.7)
3400m - 4:19.32 - (31.0)
3800m - 4:50.67 - (31.3)
4200m - 5:22.18 - (31.5)
4600m - 5:53.89 - (31.7)
5000m - 6:25.77 - (31.8)
10.03 45
7 94 Wouter  OLDE HEUVEL NED NED 6:26.65200m - 18.59 - (18.5)
600m - 47.91 - (29.3)
1000m - 1:17.59 - (29.6)
1400m - 1:47.95 - (30.3)
1800m - 2:18.34 - (30.4)
2200m - 2:48.94 - (30.6)
2600m - 3:19.48 - (30.5)
3000m - 3:50.23 - (30.7)
3400m - 4:21.27 - (31.0)
3800m - 4:52.75 - (31.4)
4200m - 5:24.21 - (31.4)
4600m - 5:55.41 - (31.2)
5000m - 6:26.65 - (31.2)
10.91 40
8 96 Ted-Jan  BLOEMEN NED NED 6:27.13200m - 18.92 - (18.9)
600m - 49.40 - (30.4)
1000m - 1:20.48 - (31.0)
1400m - 1:51.40 - (30.9)
1800m - 2:22.14 - (30.7)
2200m - 2:52.89 - (30.7)
2600m - 3:23.72 - (30.8)
3000m - 3:54.19 - (30.4)
3400m - 4:24.83 - (30.6)
3800m - 4:55.57 - (30.7)
4200m - 5:26.22 - (30.6)
4600m - 5:56.70 - (30.4)
5000m - 6:27.13 - (30.4)
11.39 36
9 105 Øystein  GRØDUM NOR NOR 6:29.25200m - 19.86 - (19.8)
600m - 50.11 - (30.2)
1000m - 1:20.93 - (30.8)
1400m - 1:51.56 - (30.6)
1800m - 2:22.25 - (30.6)
2200m - 2:52.94 - (30.6)
2600m - 3:23.92 - (30.9)
3000m - 3:54.78 - (30.8)
3400m - 4:25.57 - (30.7)
3800m - 4:56.38 - (30.8)
4200m - 5:27.47 - (31.0)
4600m - 5:58.28 - (30.8)
5000m - 6:29.25 - (30.9)
13.51 32
10 137 Shani  DAVIS USA USA 6:29.95200m - 19.38 - (19.3)
600m - 49.11 - (29.7)
1000m - 1:18.38 - (29.2)
1400m - 1:48.51 - (30.1)
1800m - 2:18.85 - (30.3)
2200m - 2:49.40 - (30.5)
2600m - 3:19.74 - (30.3)
3000m - 3:50.49 - (30.7)
3400m - 4:21.54 - (31.0)
3800m - 4:52.75 - (31.2)
4200m - 5:24.59 - (31.8)
4600m - 5:57.29 - (32.7)
5000m - 6:29.95 - (32.6)
14.21 28
11 68 Hiroki  HIRAKO JPN JPN 6:29.98200m - 19.14 - (19.1)
600m - 49.46 - (30.3)
1000m - 1:19.84 - (30.3)
1400m - 1:50.43 - (30.5)
1800m - 2:21.03 - (30.6)
2200m - 2:51.54 - (30.5)
2600m - 3:22.08 - (30.5)
3000m - 3:52.89 - (30.8)
3400m - 4:23.90 - (31.0)
3800m - 4:55.18 - (31.2)
4200m - 5:26.62 - (31.4)
4600m - 5:58.22 - (31.6)
5000m - 6:29.98 - (31.7)
14.24 24
12 51 Tobias  SCHNEIDER GER GER 6:31.60200m - 19.37 - (19.3)
600m - 50.17 - (30.8)
1000m - 1:21.22 - (31.0)
1400m - 1:52.13 - (30.9)
1800m - 2:23.01 - (30.8)
2200m - 2:54.32 - (31.3)
2600m - 3:25.36 - (31.0)
3000m - 3:56.23 - (30.8)
3400m - 4:26.88 - (30.6)
3800m - 4:57.49 - (30.6)
4200m - 5:28.57 - (31.0)
4600m - 6:00.12 - (31.5)
5000m - 6:31.60 - (31.4)
15.86 21
13 50 Marco  WEBER GER GER 6:32.05200m - 19.58 - (19.5)
600m - 50.18 - (30.6)
1000m - 1:21.42 - (31.2)
1400m - 1:52.25 - (30.8)
1800m - 2:23.48 - (31.2)
2200m - 2:54.71 - (31.2)
2600m - 3:26.06 - (31.3)
3000m - 3:57.40 - (31.3)
3400m - 4:28.43 - (31.0)
3800m - 4:59.40 - (30.9)
4200m - 5:30.50 - (31.1)
4600m - 6:01.35 - (30.8)
5000m - 6:32.05 - (30.6)
16.31 18
14 13 Lucas  MAKOWSKY CAN CAN 6:32.28200m - 19.77 - (19.7)
600m - 51.26 - (31.4)
1000m - 1:22.58 - (31.3)
1400m - 1:53.74 - (31.1)
1800m - 2:24.76 - (31.0)
2200m - 2:55.73 - (30.9)
2600m - 3:26.57 - (30.8)
3000m - 3:57.28 - (30.7)
3400m - 4:27.97 - (30.6)
3800m - 4:58.75 - (30.7)
4200m - 5:29.63 - (30.8)
4600m - 6:00.81 - (31.1)
5000m - 6:32.28 - (31.4)
16.54 16
15 53 Moritz  GEISREITER GER GER 6:36.66200m - 19.69 - (19.6)
600m - 50.33 - (30.6)
1000m - 1:21.07 - (30.7)
1400m - 1:52.48 - (31.4)
1800m - 2:23.80 - (31.3)
2200m - 2:54.75 - (30.9)
2600m - 3:25.88 - (31.1)
3000m - 3:57.26 - (31.3)
3400m - 4:28.62 - (31.3)
3800m - 5:00.40 - (31.7)
4200m - 5:32.49 - (32.0)
4600m - 6:04.52 - (32.0)
5000m - 6:36.66 - (32.1)
20.92 14
16 129 Roger  SCHNEIDER SUI SUI 6:39.49200m - 19.54 - (19.5)
600m - 50.52 - (30.9)
1000m - 1:21.32 - (30.8)
1400m - 1:52.36 - (31.0)
1800m - 2:23.95 - (31.5)
2200m - 2:55.31 - (31.3)
2600m - 3:26.94 - (31.6)
3000m - 3:58.54 - (31.6)
3400m - 4:30.18 - (31.6)
3800m - 5:02.21 - (32.0)
4200m - 5:34.46 - (32.2)
4600m - 6:06.67 - (32.2)
5000m - 6:39.49 - (32.8)
23.75 12
17 106 Tore  SOLLI NOR NOR 6:39.79200m - 19.92 - (19.9)
600m - 50.92 - (31.0)
1000m - 1:22.07 - (31.1)
1400m - 1:53.75 - (31.6)
1800m - 2:24.98 - (31.2)
2200m - 2:56.27 - (31.2)
2600m - 3:27.77 - (31.5)
3000m - 3:59.45 - (31.6)
3400m - 4:30.83 - (31.3)
3800m - 5:02.33 - (31.5)
4200m - 5:33.81 - (31.4)
4600m - 6:05.41 - (31.6)
5000m - 6:39.79 - (34.3)
24.05 10
18 145 Fredrik  VAN DER HORST NOR NOR 6:42.93200m - 20.08 - (20.0)
600m - 51.43 - (31.3)
1000m - 1:22.71 - (31.2)
1400m - 1:54.61 - (31.9)
1800m - 2:26.47 - (31.8)
2200m - 2:57.93 - (31.4)
2600m - 3:30.14 - (32.2)
3000m - 4:02.03 - (31.8)
3400m - 4:34.16 - (32.1)
3800m - 5:06.56 - (32.4)
4200m - 5:38.62 - (32.0)
4600m - 6:10.22 - (31.6)
5000m - 6:42.93 - (32.7)
27.19 8
19 9 Denny  MORRISON CAN CAN 6:43.37200m - 18.98 - (18.9)
600m - 48.33 - (29.3)
1000m - 1:18.71 - (30.3)
1400m - 1:49.52 - (30.8)
1800m - 2:20.45 - (30.9)
2200m - 2:51.67 - (31.2)
2600m - 3:23.36 - (31.6)
3000m - 3:55.35 - (31.9)
3400m - 4:27.34 - (31.9)
3800m - 4:59.88 - (32.5)
4200m - 5:33.39 - (33.5)
4600m - 6:07.94 - (34.5)
5000m - 6:43.37 - (35.4)
27.63 6
20 121 Andrey  BURLYAYEV RUS RUS 6:51.99200m - 19.49 - (19.4)
600m - 51.33 - (31.8)
1000m - 1:22.69 - (31.3)
1400m - 1:54.46 - (31.7)
1800m - 2:26.91 - (32.4)
2200m - 2:59.53 - (32.6)
2600m - 3:32.02 - (32.4)
3000m - 4:04.74 - (32.7)
3400m - 4:37.90 - (33.1)
3800m - 5:11.17 - (33.2)
4200m - 5:44.96 - (33.7)
4600m - 6:18.73 - (33.7)
5000m - 6:51.99 - (33.2)
36.25 5
21 15 Justin  WARSYLEWICZ CAN CAN 6:58.09200m - 19.32 - (19.3)
600m - 50.69 - (31.3)
1000m - 1:22.48 - (31.7)
1400m - 1:54.39 - (31.9)
1800m - 2:26.02 - (31.6)
2200m - 2:58.22 - (32.2)
2600m - 3:30.53 - (32.3)
3000m - 4:03.57 - (33.0)
3400m - 4:37.32 - (33.7)
3800m - 5:11.55 - (34.2)
4200m - 5:46.75 - (35.2)
4600m - 6:22.57 - (35.8)
5000m - 6:58.09 - (35.5)
42.35 4
22 72 Dmitry  BABENKO KAZ KAZ DQ200m - 18.91 - (18.9)
600m - 49.66 - (30.7)
1000m - 1:20.92 - (31.2)
1400m - 1:51.75 - (30.8)
1800m - 2:22.78 - (31.0)
2200m - 2:53.79 - (31.0)
2600m - 3:25.33 - (31.5)
3000m - 3:57.09 - (31.7)
3400m - 4:29.56 - (32.4)
3800m - 5:02.53 - (32.9)
4200m - 5:35.98 - (33.4)
4600m - 6:09.88 - (33.9)
5000m - 6:42.62 - (32.7)
0
22 120 Ivan  SKOBREV RUS RUS DQ200m - 19.16 - (19.1)
600m - 49.08 - (29.9)
1000m - 1:19.26 - (30.1)
1400m - 1:50.02 - (30.7)
1800m - 2:20.86 - (30.8)
2200m - 2:52.02 - (31.1)
2600m - 3:23.04 - (31.0)
3000m - 3:54.40 - (31.3)
3400m - 4:25.78 - (31.3)
3800m - 4:57.42 - (31.6)
4200m - 5:29.53 - (32.1)
4600m - 6:01.78 - (32.2)
5000m - 6:35.10 - (33.3)
0